EZY35H EHAM-EGGW

Flight info

Callsign EZY35H
Flight time N/A
Altitude 26000
Route VALKO5M IDRID M40 RINIS RINIS1N
Aircraft A320/M-VGDW/C

Departure

Time 2026-05-07 18:15
Airport Amsterdam Airport Schiphol (EHAM)

Arrival

Time N/A
Airport London Luton Airport (EGGW)
Time Latitude Longitude Altitude Speed Heading
2026-05-07 17:55 52.31048 4.75512 -3 ft 0 kts 150°
2026-05-07 18:03 52.31052 4.75509 -3 ft 2 kts 150°
2026-05-07 18:03 52.31068 4.75493 -3 ft 3 kts 138°
2026-05-07 18:03 52.31083 4.75459 -3 ft 3 kts 95°
2026-05-07 18:04 52.31083 4.75441 -3 ft 2 kts 64°
2026-05-07 18:04 52.31080 4.75433 -3 ft 0 kts 56°
2026-05-07 18:07 52.31093 4.75464 -3 ft 7 kts 53°
2026-05-07 18:07 52.31138 4.75499 -3 ft 7 kts
2026-05-07 18:07 52.31187 4.75493 -3 ft 9 kts 356°
2026-05-07 18:07 52.31253 4.75485 -3 ft 9 kts 356°
2026-05-07 18:08 52.31314 4.75478 -3 ft 8 kts 356°
2026-05-07 18:08 52.31364 4.75469 -3 ft 7 kts 345°
2026-05-07 18:08 52.31409 4.75432 -3 ft 8 kts 320°
2026-05-07 18:08 52.31422 4.75289 -3 ft 15 kts 268°
2026-05-07 18:09 52.31418 4.75124 -3 ft 14 kts 268°
2026-05-07 18:09 52.31413 4.74964 -3 ft 17 kts 267°
2026-05-07 18:09 52.31405 4.74725 -3 ft 22 kts 265°
2026-05-07 18:09 52.31398 4.74474 -3 ft 22 kts 268°
2026-05-07 18:10 52.31391 4.74235 -3 ft 18 kts 267°
2026-05-07 18:10 52.31318 4.74131 -3 ft 15 kts 184°
2026-05-07 18:10 52.31223 4.74122 -3 ft 13 kts 183°
2026-05-07 18:10 52.31126 4.74112 -3 ft 18 kts 183°
2026-05-07 18:11 52.31000 4.74101 -3 ft 18 kts 182°
2026-05-07 18:11 52.30874 4.74091 -3 ft 21 kts 183°
2026-05-07 18:11 52.30716 4.74077 -3 ft 23 kts 183°
2026-05-07 18:11 52.30549 4.74060 -3 ft 25 kts 184°
2026-05-07 18:12 52.30374 4.74043 -3 ft 26 kts 183°
2026-05-07 18:12 52.30219 4.73915 -3 ft 22 kts 220°
2026-05-07 18:12 52.30195 4.73766 -3 ft 9 kts 294°
2026-05-07 18:12 52.30244 4.73740 -4 ft 0 kts
2026-05-07 18:14 52.30252 4.73740 -4 ft 2 kts
2026-05-07 18:14 52.30336 4.73748 -5 ft 35 kts
2026-05-07 18:15 52.30827 4.73792 -2 ft 102 kts
2026-05-07 18:15 52.31725 4.73880 -3 ft 153 kts
2026-05-07 18:15 52.32877 4.73985 319 ft 171 kts
2026-05-07 18:15 52.34079 4.74005 960 ft 175 kts 354°
2026-05-07 18:16 52.35306 4.73583 1483 ft 189 kts 353°
2026-05-07 18:16 52.36683 4.73177 1807 ft 214 kts 347°
2026-05-07 18:16 52.38193 4.72433 2225 ft 239 kts 344°
2026-05-07 18:16 52.39839 4.71569 2837 ft 254 kts 343°
2026-05-07 18:17 52.41547 4.70687 3689 ft 260 kts 343°
2026-05-07 18:17 52.43269 4.69699 4571 ft 265 kts 332°
2026-05-07 18:17 52.44695 4.67781 5399 ft 269 kts 306°
2026-05-07 18:17 52.45471 4.65000 6240 ft 271 kts 278°
2026-05-07 18:18 52.45414 4.61947 7064 ft 270 kts 252°
2026-05-07 18:18 52.44578 4.59196 7886 ft 271 kts 236°
2026-05-07 18:18 52.43529 4.56603 8725 ft 275 kts 236°
2026-05-07 18:18 52.42457 4.53969 9524 ft 280 kts 236°
2026-05-07 18:19 52.41374 4.51294 10297 ft 285 kts 236°
2026-05-07 18:19 52.40238 4.48483 10577 ft 308 kts 236°
2026-05-07 18:19 52.39013 4.45452 10849 ft 328 kts 236°
2026-05-07 18:19 52.37734 4.42296 11468 ft 335 kts 236°
2026-05-07 18:20 52.36441 4.39102 12210 ft 338 kts 236°
2026-05-07 18:20 52.35154 4.35918 12938 ft 341 kts 237°
2026-05-07 18:20 52.33837 4.32666 13656 ft 345 kts 237°
2026-05-07 18:20 52.32506 4.29386 14308 ft 348 kts 237°
2026-05-07 18:21 52.31162 4.26070 14946 ft 351 kts 237°
2026-05-07 18:21 52.29808 4.22737 15569 ft 354 kts 236°
2026-05-07 18:21 52.28435 4.19365 16186 ft 357 kts 237°
2026-05-07 18:21 52.27053 4.15975 16817 ft 360 kts 236°
2026-05-07 18:22 52.25657 4.12552 17421 ft 364 kts 236°
2026-05-07 18:22 52.24725 4.10272 17822 ft 366 kts 236°
2026-05-07 18:22 52.22823 4.05629 18596 ft 370 kts 236°
2026-05-07 18:22 52.21385 4.02130 19107 ft 373 kts 236°
2026-05-07 18:23 52.19934 3.98604 19628 ft 375 kts 236°
2026-05-07 18:23 52.18475 3.95067 20144 ft 378 kts 236°
2026-05-07 18:23 52.17004 3.91497 20650 ft 380 kts 236°
2026-05-07 18:23 52.15527 3.87913 21158 ft 383 kts 236°
2026-05-07 18:24 52.14038 3.84294 21650 ft 385 kts 236°
2026-05-07 18:24 52.12542 3.80666 22159 ft 388 kts 236°
2026-05-07 18:24 52.11052 3.77060 22623 ft 390 kts 236°
2026-05-07 18:24 52.09509 3.73342 23100 ft 393 kts 236°
2026-05-07 18:25 52.07994 3.69701 23559 ft 395 kts 236°
2026-05-07 18:25 52.06445 3.65987 23955 ft 398 kts 236°
2026-05-07 18:25 52.04879 3.62237 24071 ft 397 kts 236°
2026-05-07 18:25 52.03353 3.58581 24102 ft 392 kts 236°
2026-05-07 18:26 52.01826 3.54923 24102 ft 390 kts 236°
2026-05-07 18:26 52.00441 3.51141 24109 ft 390 kts 245°
2026-05-07 18:26 51.99493 3.47035 24104 ft 390 kts 255°
2026-05-07 18:26 51.98980 3.42723 24112 ft 390 kts 261°
2026-05-07 18:27 51.98578 3.38363 24100 ft 390 kts 261°
2026-05-07 18:27 51.98172 3.34016 24106 ft 390 kts 261°
2026-05-07 18:27 51.97759 3.29672 24103 ft 390 kts 261°
2026-05-07 18:27 51.97340 3.25333 24102 ft 390 kts 261°
2026-05-07 18:28 51.96918 3.20994 24101 ft 389 kts 261°
2026-05-07 18:28 51.96500 3.16660 24099 ft 389 kts 261°
2026-05-07 18:28 51.96146 3.12305 24101 ft 389 kts 263°
2026-05-07 18:28 51.95860 3.07947 24092 ft 389 kts 264°
2026-05-07 18:29 51.95603 3.03571 24084 ft 389 kts 264°
2026-05-07 18:29 51.95354 2.99200 24090 ft 389 kts 264°
2026-05-07 18:29 51.95098 2.94831 24090 ft 389 kts 264°
2026-05-07 18:29 51.94826 2.90470 24085 ft 389 kts 263°
2026-05-07 18:30 51.94541 2.86109 24083 ft 389 kts 263°
2026-05-07 18:30 51.94247 2.81746 24088 ft 389 kts 263°
2026-05-07 18:30 51.93954 2.77445 24094 ft 389 kts 263°
2026-05-07 18:30 51.93654 2.73090 24098 ft 389 kts 263°
2026-05-07 18:31 51.93355 2.68734 24087 ft 389 kts 263°
2026-05-07 18:31 51.93059 2.64384 24087 ft 389 kts 263°
2026-05-07 18:31 51.92762 2.60024 24088 ft 388 kts 263°
2026-05-07 18:31 51.92465 2.55674 24088 ft 388 kts 263°
2026-05-07 18:32 51.92167 2.51325 24086 ft 388 kts 263°
2026-05-07 18:32 51.91865 2.46960 24091 ft 393 kts 263°
2026-05-07 18:32 51.91555 2.42549 24085 ft 395 kts 263°
2026-05-07 18:32 51.91238 2.38123 24086 ft 395 kts 263°
2026-05-07 18:33 51.90923 2.33707 24091 ft 395 kts 263°
2026-05-07 18:33 51.90660 2.29271 24088 ft 396 kts 265°
2026-05-07 18:33 51.90510 2.24834 24084 ft 392 kts 267°
2026-05-07 18:33 51.90429 2.20516 23996 ft 377 kts 268°
2026-05-07 18:34 51.90374 2.16319 23654 ft 369 kts 268°
2026-05-07 18:34 51.90320 2.12183 23139 ft 366 kts 268°
2026-05-07 18:34 51.90255 2.08079 22618 ft 363 kts 267°
2026-05-07 18:34 51.90171 2.04007 22112 ft 361 kts 267°
2026-05-07 18:35 51.90070 1.99960 21731 ft 359 kts 266°
2026-05-07 18:35 51.89964 1.95921 21493 ft 359 kts 266°
2026-05-07 18:35 51.90066 1.91878 21255 ft 359 kts 278°
2026-05-07 18:35 51.90733 1.88045 21028 ft 360 kts 291°
2026-05-07 18:36 51.91712 1.84332 20661 ft 357 kts 291°
2026-05-07 18:36 51.92673 1.80632 20192 ft 355 kts 291°
2026-05-07 18:36 51.93624 1.76939 19741 ft 354 kts 291°
2026-05-07 18:36 51.94568 1.73271 19307 ft 352 kts 291°
2026-05-07 18:37 51.95507 1.69623 18878 ft 350 kts 291°
2026-05-07 18:37 51.96442 1.65983 18464 ft 348 kts 291°
2026-05-07 18:37 51.97373 1.62368 17986 ft 347 kts 291°
2026-05-07 18:37 51.98299 1.58767 17533 ft 345 kts 291°
2026-05-07 18:38 51.99219 1.55179 17084 ft 343 kts 291°
2026-05-07 18:38 52.00130 1.51626 16643 ft 341 kts 291°
2026-05-07 18:38 52.01041 1.48079 16212 ft 339 kts 291°
2026-05-07 18:38 52.01945 1.44555 15808 ft 338 kts 291°
2026-05-07 18:39 52.02843 1.41045 15393 ft 336 kts 291°
2026-05-07 18:39 52.03738 1.37544 14991 ft 335 kts 291°
2026-05-07 18:39 52.04625 1.34058 14595 ft 333 kts 290°
2026-05-07 18:39 52.05505 1.30584 14195 ft 332 kts 290°
2026-05-07 18:40 52.06372 1.27161 13821 ft 331 kts 290°
2026-05-07 18:40 52.07245 1.23711 13386 ft 329 kts 290°
2026-05-07 18:40 52.08111 1.20283 12985 ft 327 kts 290°
2026-05-07 18:40 52.08971 1.16871 12584 ft 325 kts 290°
2026-05-07 18:41 52.09828 1.13480 12183 ft 323 kts 290°
2026-05-07 18:41 52.10680 1.10116 11789 ft 321 kts 290°
2026-05-07 18:41 52.11525 1.06767 11391 ft 319 kts 290°
2026-05-07 18:41 52.12361 1.03441 10975 ft 317 kts 290°
2026-05-07 18:42 52.13192 1.00130 10599 ft 315 kts 290°
2026-05-07 18:42 52.14017 0.96839 10212 ft 313 kts 290°
2026-05-07 18:42 52.14831 0.93581 9972 ft 306 kts 290°
2026-05-07 18:42 52.15618 0.90427 9832 ft 295 kts 290°
2026-05-07 18:43 52.16380 0.87375 9640 ft 287 kts 290°
2026-05-07 18:43 52.17127 0.84387 9313 ft 284 kts 290°
2026-05-07 18:43 52.17868 0.81410 8957 ft 281 kts 290°
2026-05-07 18:43 52.18598 0.78471 8601 ft 279 kts 290°
2026-05-07 18:44 52.19321 0.75550 8235 ft 277 kts 290°
2026-05-07 18:44 52.20028 0.72693 7895 ft 274 kts 290°
2026-05-07 18:44 52.20738 0.69820 7549 ft 272 kts 290°
2026-05-07 18:44 52.21399 0.66950 7186 ft 269 kts 282°
2026-05-07 18:45 52.21546 0.63957 7067 ft 265 kts 265°
2026-05-07 18:45 52.21349 0.60956 7075 ft 266 kts 262°
2026-05-07 18:45 52.21100 0.57959 7073 ft 266 kts 262°
2026-05-07 18:45 52.20846 0.54971 7075 ft 266 kts 261°
2026-05-07 18:46 52.20591 0.51976 7082 ft 266 kts 261°
2026-05-07 18:46 52.20334 0.48988 7080 ft 266 kts 261°
2026-05-07 18:46 52.20075 0.46006 7079 ft 266 kts 261°
2026-05-07 18:46 52.19813 0.43020 7078 ft 266 kts 261°
2026-05-07 18:47 52.19551 0.40046 7074 ft 265 kts 261°
2026-05-07 18:47 52.19288 0.37070 7074 ft 265 kts 261°
2026-05-07 18:47 52.18849 0.34161 7078 ft 265 kts 252°
2026-05-07 18:47 52.18276 0.31311 7072 ft 265 kts 251°
2026-05-07 18:48 52.17686 0.28472 7071 ft 265 kts 251°
2026-05-07 18:48 52.17091 0.25637 6981 ft 263 kts 251°
2026-05-07 18:48 52.16495 0.22816 6768 ft 263 kts 251°
2026-05-07 18:48 52.15898 0.20009 6500 ft 261 kts 251°
2026-05-07 18:49 52.15299 0.17220 6212 ft 260 kts 251°
2026-05-07 18:49 52.14904 0.15388 6028 ft 259 kts 251°
2026-05-07 18:49 52.14301 0.12625 5735 ft 258 kts 248°
2026-05-07 18:49 52.13538 0.09990 5446 ft 257 kts 244°
2026-05-07 18:50 52.12721 0.07405 5163 ft 256 kts 243°
2026-05-07 18:50 52.11906 0.04831 4879 ft 256 kts 243°
2026-05-07 18:50 52.11096 0.02254 4589 ft 256 kts 243°
2026-05-07 18:50 52.10221 -0.00256 4300 ft 255 kts 230°
2026-05-07 18:51 52.08880 -0.02114 4015 ft 254 kts 216°
2026-05-07 18:51 52.07444 -0.03786 3734 ft 254 kts 215°
2026-05-07 18:51 52.06013 -0.05460 3452 ft 253 kts 215°
2026-05-07 18:51 52.04592 -0.07145 3165 ft 253 kts 215°
2026-05-07 18:52 52.03201 -0.08821 2868 ft 251 kts 215°
2026-05-07 18:52 52.01789 -0.10540 2586 ft 250 kts 215°
2026-05-07 18:52 52.00423 -0.12226 2296 ft 250 kts 215°
2026-05-07 18:52 51.99038 -0.13944 2061 ft 250 kts 215°
2026-05-07 18:53 51.97653 -0.15665 2005 ft 251 kts 215°
2026-05-07 18:53 51.96266 -0.17390 2004 ft 251 kts 215°
2026-05-07 18:53 51.94876 -0.19114 2010 ft 252 kts 215°
2026-05-07 18:53 51.93485 -0.20840 2009 ft 252 kts 215°
2026-05-07 18:54 51.92030 -0.22404 2005 ft 250 kts 206°
2026-05-07 18:54 51.90460 -0.23583 2009 ft 249 kts 201°
2026-05-07 18:54 51.88930 -0.24750 2002 ft 235 kts 209°
2026-05-07 18:54 51.87751 -0.26441 2005 ft 221 kts 226°
2026-05-07 18:55 51.86793 -0.28302 1932 ft 211 kts 229°
2026-05-07 18:55 51.85893 -0.30138 1798 ft 205 kts 229°
2026-05-07 18:55 51.85025 -0.31927 1672 ft 199 kts 229°
2026-05-07 18:55 51.84185 -0.33664 1592 ft 191 kts 232°
2026-05-07 18:56 51.83725 -0.35517 1742 ft 167 kts 263°
2026-05-07 18:56 51.83907 -0.37292 1806 ft 158 kts 286°
2026-05-07 18:56 51.84081 -0.38981 1638 ft 149 kts 263°
2026-05-07 18:56 51.83793 -0.40531 1547 ft 143 kts 232°
2026-05-07 18:57 51.83279 -0.41896 1388 ft 145 kts 253°
2026-05-07 18:57 51.83408 -0.43490 1239 ft 148 kts 301°
2026-05-07 18:57 51.84205 -0.44517 1300 ft 151 kts 345°
2026-05-07 18:57 51.85227 -0.44439 1324 ft 149 kts 26°
2026-05-07 18:58 51.86055 -0.43466 1267 ft 147 kts 48°
2026-05-07 18:58 51.86568 -0.42092 1055 ft 141 kts 73°
2026-05-07 18:58 51.86817 -0.40594 852 ft 139 kts 78°
2026-05-07 18:58 51.87078 -0.39095 675 ft 138 kts 78°
2026-05-07 18:59 51.87325 -0.37616 538 ft 126 kts 73°
2026-05-07 18:59 51.87514 -0.36513 539 ft 77 kts 75°